| time (UTC) | temp F | wind direction | speed MPH | gust MPH | rain 1hr in | rain 24hr in | rain mn in | humidity % | barometer mb |
| 20260507070101 | 57 | 301 | 0.0 | 12.0 | 0.00 | 0.11 | 0.00 | 1 | 1011.4 |
| 20260507064557 | 57 | 307 | 0.0 | 10.0 | 0.00 | 0.11 | 0.00 | 1 | 1011.2 |
| 20260507063054 | 57 | 319 | 0.0 | 1.0 | 0.00 | 0.11 | 0.00 | 1 | 1010.8 |
| 20260507061546 | 57 | 333 | 1.0 | 5.0 | 0.00 | 0.11 | 0.00 | 1 | 1011.0 |
| 20260507060040 | 58 | 311 | 0.0 | 0.0 | 0.00 | 0.11 | 0.00 | 1 | 1011.3 |
| 20260507054541 | 58 | 46 | 0.0 | 0.0 | 0.00 | 0.11 | 0.00 | 1 | 1011.7 |
| 20260507053032 | 58 | 301 | 0.0 | 5.0 | 0.00 | 0.11 | 0.00 | 1 | 1011.5 |
| 20260507051528 | 58 | 20 | 0.0 | 10.0 | 0.00 | 0.11 | 0.00 | 1 | 1011.4 |
| 20260507050023 | 58 | 42 | 0.0 | 0.0 | 0.00 | 0.11 | 0.00 | 1 | 1010.9 |
| 20260507044519 | 58 | 338 | 0.0 | 9.0 | 0.00 | 0.11 | 0.00 | 1 | 1011.2 |
| 20260507043014 | 58 | 329 | 0.0 | 9.0 | 0.00 | 0.11 | 0.00 | 1 | 1011.2 |
| 20260507041510 | 59 | 320 | 1.0 | 6.0 | 0.00 | 0.11 | 0.00 | 1 | 1011.0 |
| 20260507040005 | 59 | 327 | 0.0 | 0.0 | 0.00 | 0.11 | 0.00 | 1 | 1011.4 |
| 20260507034502 | 59 | 79 | 0.0 | 0.0 | 0.00 | 0.11 | 0.00 | 1 | 1011.2 |
| 20260507033058 | 59 | 314 | 0.0 | 0.0 | 0.00 | 0.11 | 0.00 | 1 | 1011.4 |
| 20260507031556 | 59 | 335 | 0.0 | 10.0 | 0.00 | 0.11 | 0.00 | 1 | 1011.5 |
| 20260507030053 | 59 | 96 | 0.0 | 7.0 | 0.00 | 0.11 | 0.00 | 1 | 1011.3 |
| 20260507024543 | 59 | 345 | 0.0 | 0.0 | 0.00 | 0.11 | 0.00 | 1 | 1011.1 |
| 20260507023038 | 59 | 335 | 0.0 | 0.0 | 0.00 | 0.11 | 0.00 | 1 | 1010.9 |
| 20260507021534 | 60 | 303 | 0.0 | 0.0 | 0.00 | 0.11 | 0.00 | 1 | 1010.7 |
| 20260507020033 | 60 | 27 | 0.0 | 8.0 | 0.00 | 0.11 | 0.00 | 1 | 1010.3 |
| 20260507014525 | 60 | 351 | 0.0 | 3.0 | 0.00 | 0.11 | 0.00 | 1 | 1010.3 |
| 20260507013030 | 60 | 299 | 0.0 | 8.0 | 0.00 | 0.11 | 0.00 | 1 | 1009.5 |
| 20260507011532 | 61 | 45 | 0.0 | 0.0 | 0.00 | 0.11 | 0.00 | 1 | 1009.4 |
| 20260507010011 | 61 | 38 | 0.0 | 0.0 | 0.00 | 0.11 | 0.00 | 1 | 1009.3 |
| 20260507004511 | 61 | 40 | 0.0 | 0.0 | 0.00 | 0.11 | 0.00 | 1 | 1009.3 |
| 20260507003007 | 61 | 82 | 0.0 | 0.0 | 0.00 | 0.11 | 0.00 | 1 | 1009.8 |
| 20260507001616 | 62 | 41 | 0.0 | 1.0 | 0.00 | 0.11 | 0.00 | 1 | 1010.0 |
| 20260507000155 | 62 | 9 | 0.0 | 0.0 | 0.00 | 0.11 | 0.00 | 1 | 1010.3 |
| 20260506234536 | 62 | 334 | 0.0 | 0.0 | 0.00 | 0.11 | 0.11 | 1 | 1010.4 |
| 20260506233025 | 62 | 45 | 0.0 | 0.0 | 0.00 | 0.11 | 0.11 | 1 | 1010.1 |
| 20260506231518 | 62 | 26 | 0.0 | 0.0 | 0.00 | 0.11 | 0.11 | 1 | 1010.2 |
| 20260506230013 | 62 | 26 | 1.0 | 6.0 | 0.00 | 0.11 | 0.11 | 1 | 1010.0 |
| 20260506224518 | 61 | 303 | 0.0 | 12.0 | 0.00 | 0.11 | 0.11 | 1 | 1010.1 |
| 20260506223005 | 62 | 339 | 5.0 | 11.0 | 0.00 | 0.11 | 0.11 | 1 | 1010.2 |
| 20260506221601 | 63 | 298 | 1.0 | 9.0 | 0.00 | 0.11 | 0.11 | 1 | 1010.6 |
| 20260506220107 | 64 | 323 | 0.0 | 5.0 | 0.00 | 0.11 | 0.11 | 1 | 1010.2 |
| 20260506214552 | 65 | 321 | 0.0 | 13.0 | 0.00 | 0.11 | 0.11 | 1 | 1010.0 |
| 20260506213047 | 68 | 323 | 0.0 | 5.0 | 0.00 | 0.11 | 0.11 | 1 | 1009.3 |
| 20260506211543 | 70 | 146 | 0.0 | 9.0 | 0.00 | 0.11 | 0.11 | 1 | 1008.8 |
| 20260506210039 | 72 | 15 | 0.0 | 9.0 | 0.00 | 0.11 | 0.11 | 1 | 1008.9 |
| 20260506204536 | 73 | 297 | 0.0 | 0.0 | 0.00 | 0.11 | 0.11 | 1 | 1009.1 |
| 20260506203039 | 73 | 313 | 3.0 | 10.0 | 0.11 | 0.11 | 0.11 | 1 | 1009.1 |
| 20260506201525 | 73 | 311 | 3.0 | 8.0 | 0.11 | 0.11 | 0.11 | 1 | 1009.1 |
| 20260506200025 | 73 | 338 | 0.0 | 5.0 | 0.11 | 0.11 | 0.11 | 1 | 1008.9 |
| 20260506194516 | 73 | 298 | 0.0 | 4.0 | 0.11 | 0.11 | 0.11 | 1 | 1009.4 |
| 20260506193012 | 76 | 324 | 4.0 | 13.0 | 0.00 | 0.00 | 0.00 | 1 | 1009.4 |
| 20260506191510 | 79 | 287 | 0.0 | 8.0 | 0.00 | 0.00 | 0.00 | 6 | 1009.1 |
| 20260506190104 | 78 | 221 | 6.0 | 12.0 | 0.00 | 0.00 | 0.00 | 2 | 1009.1 |
| 20260506184602 | 78 | 247 | 5.0 | 13.0 | 0.00 | 0.00 | 0.00 | 1 | 1009.1 |
| 20260506183058 | 77 | 251 | 0.0 | 5.0 | 0.00 | 0.00 | 0.00 | 1 | 1009.3 |
| 20260506181550 | 78 | 259 | 0.0 | 0.0 | 0.00 | 0.00 | 0.00 | 1 | 1009.4 |
| 20260506180046 | 78 | 251 | 0.0 | 1.0 | 0.00 | 0.00 | 0.00 | 1 | 1009.4 |
| 20260506174539 | 79 | 278 | 0.0 | 5.0 | 0.00 | 0.00 | 0.00 | 6 | 1009.6 |
| 20260506173044 | 78 | 240 | 0.0 | 14.0 | 0.00 | 0.00 | 0.00 | 9 | 1009.7 |
| 20260506171535 | 79 | 275 | 6.0 | 12.0 | 0.00 | 0.00 | 0.00 | 9 | 1009.4 |
| 20260506170027 | 79 | 287 | 0.0 | 6.0 | 0.00 | 0.00 | 0.00 | 5 | 1009.6 |
| 20260506164520 | 77 | 257 | 0.0 | 9.0 | 0.00 | 0.00 | 0.00 | 1 | 1009.6 |
| 20260506163034 | 77 | 133 | 0.0 | 11.0 | 0.00 | 0.00 | 0.00 | 1 | 1009.6 |
| 20260506161514 | 77 | 254 | 0.0 | 7.0 | 0.00 | 0.00 | 0.00 | 1 | 1009.3 |
| 20260506160007 | 76 | 218 | 0.0 | 5.0 | 0.00 | 0.00 | 0.00 | 1 | 1009.3 |
| 20260506154505 | 76 | 262 | 0.0 | 5.0 | 0.00 | 0.00 | 0.00 | 1 | 1009.7 |
| 20260506153124 | 76 | 205 | 0.0 | 8.0 | 0.00 | 0.00 | 0.00 | 1 | 1009.6 |
| 20260506151554 | 76 | 264 | 1.0 | 10.0 | 0.00 | 0.00 | 0.00 | 1 | 1009.6 |
| 20260506150050 | 76 | 217 | 1.0 | 7.0 | 0.00 | 0.00 | 0.00 | 1 | 1009.5 |
| 20260506144546 | 75 | 223 | 0.0 | 10.0 | 0.00 | 0.00 | 0.00 | 1 | 1009.4 |
| 20260506143041 | 75 | 212 | 1.0 | 14.0 | 0.00 | 0.00 | 0.00 | 1 | 1009.4 |
| 20260506141536 | 75 | 243 | 3.0 | 9.0 | 0.00 | 0.00 | 0.00 | 1 | 1009.3 |
| 20260506140034 | 74 | 153 | 0.0 | 10.0 | 0.00 | 0.00 | 0.00 | 1 | 1009.3 |
| 20260506134528 | 74 | 245 | 1.0 | 8.0 | 0.00 | 0.00 | 0.00 | 1 | 1009.3 |
| 20260506133024 | 73 | 203 | 3.0 | 8.0 | 0.00 | 0.00 | 0.00 | 1 | 1009.4 |
| 20260506131520 | 73 | 136 | 0.0 | 10.0 | 0.00 | 0.00 | 0.00 | 1 | 1009.5 |
| 20260506130014 | 73 | 164 | 0.0 | 0.0 | 0.00 | 0.00 | 0.00 | 1 | 1009.5 |
| 20260506124509 | 72 | 160 | 0.0 | 6.0 | 0.00 | 0.00 | 0.00 | 1 | 1009.4 |
| 20260506123008 | 72 | 218 | 0.0 | 12.0 | 0.00 | 0.00 | 0.00 | 1 | 1009.3 |
| 20260506121614 | 72 | 200 | 1.0 | 9.0 | 0.00 | 0.00 | 0.00 | 1 | 1009.4 |
| 20260506120056 | 72 | 151 | 0.0 | 0.0 | 0.00 | 0.00 | 0.00 | 1 | 1009.2 |
| 20260506114552 | 72 | 240 | 0.0 | 1.0 | 0.00 | 0.00 | 0.00 | 1 | 1009.0 |
| 20260506113048 | 71 | 134 | 0.0 | 8.0 | 0.00 | 0.00 | 0.00 | 1 | 1008.6 |
| 20260506111543 | 71 | 188 | 0.0 | 4.0 | 0.00 | 0.00 | 0.00 | 1 | 1008.4 |
| 20260506110042 | 71 | 179 | 0.0 | 6.0 | 0.00 | 0.00 | 0.00 | 1 | 1008.0 |
| 20260506104535 | 71 | 104 | 0.0 | 0.0 | 0.00 | 0.00 | 0.00 | 1 | 1008.1 |
| 20260506103030 | 71 | 133 | 0.0 | 0.0 | 0.00 | 0.00 | 0.00 | 1 | 1007.9 |
| 20260506101526 | 71 | 132 | 0.0 | 0.0 | 0.00 | 0.00 | 0.00 | 1 | 1007.8 |
| 20260506100021 | 71 | 240 | 0.0 | 8.0 | 0.00 | 0.00 | 0.00 | 1 | 1007.3 |
| 20260506094517 | 71 | 165 | 0.0 | 6.0 | 0.00 | 0.00 | 0.00 | 1 | 1007.2 |
| 20260506093012 | 71 | 151 | 0.0 | 5.0 | 0.00 | 0.00 | 0.00 | 1 | 1007.7 |
| 20260506091508 | 70 | 202 | 0.0 | 6.0 | 0.00 | 0.00 | 0.00 | 1 | 1007.3 |
| 20260506090003 | 70 | 160 | 0.0 | 0.0 | 0.00 | 0.00 | 0.00 | 1 | 1007.1 |
| 20260506084632 | 71 | 164 | 0.0 | 0.0 | 0.00 | 0.00 | 0.00 | 1 | 1007.1 |
| 20260506083054 | 71 | 147 | 0.0 | 0.0 | 0.00 | 0.00 | 0.00 | 1 | 1006.9 |
| 20260506081552 | 71 | 136 | 0.0 | 0.0 | 0.00 | 0.00 | 0.00 | 1 | 1007.0 |
| 20260506073036 | 70 | 171 | 0.0 | 9.0 | 0.00 | 0.00 | 0.00 | 1 | 1006.7 |
| 20260506071532 | 70 | 183 | 0.0 | 11.0 | 0.00 | 0.00 | 0.00 | 1 | 1006.9 |